Regional Weather Roundup
Issued by NWS State College, PA

Home | Current Version | Previous Version | Text Only | Print | Product List | Glossary Off
Versions: 1 2 3 4 5 6 7 8 9 10 11 12 13 14 15 16 17 18 19 20 21 22 23 24 25 26 27 28 29 30 31 32 33 34 35 36 37 38 39 40 41 42 43 44 45 46 47 48 49 50

556
ASUS41 KCTP 261503
RWRCTP

REGIONAL WEATHER ROUNDUP
NATIONAL WEATHER SERVICE STATE COLLEGE PA
1100 AM EDT MON SEP 26 2016

Note: "fair" indicates few or no clouds below 12,000 feet with no
significant weather and/or obstructions to visibility.

* = STATION THAT DOES NOT REPORT PRECIPITATION /E.G. RAIN...SNOW...ETC/
    THUNDER OR FOG.

PAZ002>004-007>009-013>016-020>023-029>032-261600-
WESTERN PENNSYLVANIA

CITY           SKY/WX    TMP DP  RH WIND       PRES   REMARKS
ERIE           LGT RAIN  66  52  60 W7        29.92R
MEADVILLE      PTSUNNY   67  51  56 VRB6      29.93F
FRANKLIN*        N/A     64  52  63 S9        29.98F
NEW CASTLE     FAIR      69  55  60 VRB3      29.96F
BEAVER COUNTY  CLOUDY    70  55  60 SE7       29.97F
BUTLER*        SUNNY     68  54  60 S5        30.01F
PITTSBURGH INT MOSUNNY   72  57  59 S8        29.97F
PITTSBURGH     SUNNY     71  56  58 S8        29.98S
INDIANA*       MOSUNNY   70  59  68 SE7G13    30.04S
LATROBE        SUNNY     75  61  60 S9        30.00F
WASHINGTON CO* MOSUNNY   72  61  68 S8        29.99F
$$

PAZ004>006-010>012-017>019-024>028-033>037-041-042-045-046-049>053-261600-
CENTRAL PENNSYLVANIA

CITY           SKY/WX    TMP DP  RH WIND       PRES   REMARKS
BRADFORD       SUNNY     60  53  77 S10G21    30.01F
DUBOIS         SUNNY     64  54  69 SE8       30.01F
CLEARFIELD     MOSUNNY   62  55  77 CALM      30.06
JOHNSTOWN      MOSUNNY   63  59  87 S12       30.06S
ALTOONA        CLOUDY    62  56  80 S10       30.08F
STATE COLLEGE  CLOUDY    61  54  77 SW12      30.08S
WILLIAMSPORT   CLOUDY    62  46  55 VRB6      30.09F
SELINSGROVE    CLOUDY    62  49  62 S6        30.11F
FT INDIANTOWN  CLOUDY    58  46  65 NE7       30.14S
CAPITAL CITY   CLOUDY    63  53  70 E9        30.12F
HARRISBURG     CLOUDY    64  55  72 SE8       30.11F
YORK           CLOUDY    66  59  78 VRB5      30.12F
$$

PAZ038>040-043-044-047-048-054-055-060>062-067>071-261600-
EASTERN PENNSYLVANIA

CITY           SKY/WX    TMP DP  RH WIND       PRES   REMARKS
SCRANTON       CLOUDY    66  47  50 S9        30.12F
MOUNT POCONO   CLOUDY    57  43  59 SE10      30.17S
ALLENTOWN      MOSUNNY   64  46  52 SE7       30.15F
QUAKERTOWN*    PTSUNNY   66  48  52 S6        30.17F
READING        CLOUDY    61  47  59 S5        30.14F
LANCASTER      CLOUDY    65  56  72 SE7       30.14S
COATESVILLE      N/A    N/A N/A N/A MISG        N/A
POTTSTOWN      PTSUNNY   63  51  65 VRB5      30.18S
BLUE BELL      MOSUNNY   64  54  68 S9        30.17S
DOYLESTOWN     SUNNY     67  53  61 S8        30.17F
WILLOW GROVE   NOT AVBL
NORTH PHILA    MOSUNNY   68  54  60 SE9       30.19F
PHILADELPHIA   PTSUNNY   69  53  56 S9        30.17F
$$




USA.gov is the U.S. government's official web portal to all federal, state and local government web resources and services.